Nancy, France

9:18 PM CEST on April 25, 2017 (GMT +0200)
Essey

Weather History for LFSN - September, 2013

Change the Weather History Date:

Monday, September 30, 2013

  Actual Average Record
Temperature  
Mean Temperature 54 °F -  
Max Temperature 62 °F 55 °F 77 °F (2011)
Min Temperature 46 °F 43 °F 39 °F (2007)
Degree Days  
Heating Degree Days 11    
Growing Degree Days 4 (Base 50)    
Moisture  
Dew Point 46 °F    
Average Humidity 77    
Maximum Humidity 87    
Minimum Humidity 59    
Precipitation  
Precipitation 0.00 in 0.08 in - ()
Sea Level Pressure  
Sea Level Pressure 29.74 in    
Wind  
Wind Speed 5 mph ()    
Max Wind Speed 10 mph    
Max Gust Speed -    
Visibility 6.2 miles    
Events      
Averages and records for this station are not official NWS values.
T = Trace of Precipitation, MM = Missing Value Source: Averaged Metar Reports

Daily Weather History Graph

Daily Weather History Graph

Search for Another Location

Airport or City:

Trip Planner

Search our weather history database for the weather conditions in past years. The results will help you decide how hot, cold, wet, or windy it might be!

Date:

Astronomy

Sep. 30, 2013 Rise Set
Actual Time 7:33 AM CEST 7:16 PM CEST
Civil Twilight 7:01 AM CEST 7:47 PM CEST
Nautical Twilight 6:25 AM CEST 8:23 PM CEST
Astronomical Twilight 5:47 AM CEST 9:01 PM CEST
Moon 2:35 AM CEST (9/30) 4:54 PM CEST (9/30)
Length of Visible Light 12h 45m
Length of Day
11h 42m
Waning Crescent, 21% of the Moon is Illuminated
Sep 30
Waning Crescent
Oct 5
New
Oct 12
First Quarter
Oct 19
Full
Oct 27
Last Quarter

Hourly Weather History & Observations

Time (CEST) Temp. Windchill Dew Point Humidity Pressure Visibility Wind Dir Wind Speed Gust Speed Precip Events Conditions
12:00 AM 51.8 °F - 46.4 °F 82% 29.74 in 6.2 mi NE 4.6 mph - N/A   Unknown
12:30 AM 50.0 °F - 46.4 °F 87% 29.74 in 6.2 mi ENE 5.8 mph - N/A   Unknown
1:00 AM 50.0 °F - 46.4 °F 87% 29.74 in 6.2 mi NNE 3.5 mph - N/A   Unknown
1:30 AM 51.8 °F - 44.6 °F 76% 29.74 in 6.2 mi NNE 4.6 mph - N/A   Unknown
2:00 AM 50.0 °F - 44.6 °F 82% 29.71 in 6.2 mi ENE 5.8 mph - N/A   Unknown
2:30 AM 50.0 °F - 44.6 °F 82% 29.71 in 6.2 mi ENE 3.5 mph - N/A   Mostly Cloudy
3:00 AM 50.0 °F - 44.6 °F 82% 29.71 in 6.2 mi ENE 2.3 mph - N/A   Overcast
3:30 AM 50.0 °F - 44.6 °F 82% 29.71 in 6.2 mi ENE 3.5 mph - N/A   Unknown
4:00 AM 50.0 °F - 44.6 °F 82% 29.71 in 6.2 mi ENE 3.5 mph - N/A   Unknown
4:30 AM 50.0 °F - 42.8 °F 76% 29.71 in 6.2 mi East 3.5 mph - N/A   Unknown
5:00 AM 48.2 °F - 42.8 °F 82% 29.71 in 6.2 mi ENE 4.6 mph - N/A   Unknown
5:30 AM 48.2 °F - 42.8 °F 82% 29.71 in 6.2 mi ENE 5.8 mph - N/A   Unknown
6:00 AM 46.4 °F 45.2 °F 42.8 °F 87% 29.71 in 6.2 mi ENE 3.5 mph - N/A   Unknown
6:30 AM 46.4 °F 44.3 °F 42.8 °F 87% 29.71 in 6.2 mi ENE 4.6 mph - N/A   Unknown
7:00 AM 46.4 °F 45.2 °F 42.8 °F 87% 29.71 in 6.2 mi East 3.5 mph - N/A   Unknown
7:30 AM 46.4 °F 45.2 °F 42.8 °F 87% 29.71 in 6.2 mi East 3.5 mph - N/A   Scattered Clouds
8:00 AM 46.4 °F 44.3 °F 42.8 °F 87% 29.71 in 6.2 mi East 4.6 mph - N/A   Mostly Cloudy
8:30 AM 48.2 °F - 44.6 °F 87% 29.71 in 6.2 mi ENE 3.5 mph - N/A   Overcast
9:00 AM 50.0 °F - 44.6 °F 82% 29.71 in 6.2 mi ENE 6.9 mph - N/A   Overcast
9:30 AM 50.0 °F - 44.6 °F 82% 29.71 in 6.2 mi ENE 6.9 mph - N/A   Overcast
10:00 AM 51.8 °F - 44.6 °F 76% 29.71 in 6.2 mi ENE 6.9 mph - N/A   Overcast
10:30 AM 51.8 °F - 44.6 °F 76% 29.74 in 6.2 mi East 5.8 mph - N/A   Overcast
11:00 AM 53.6 °F - 44.6 °F 72% 29.74 in 6.2 mi ENE 6.9 mph - N/A   Overcast
11:30 AM 53.6 °F - 46.4 °F 77% 29.74 in 6.2 mi ENE 6.9 mph - N/A   Overcast
12:00 PM 55.4 °F - 48.2 °F 77% 29.74 in 6.2 mi ENE 6.9 mph - N/A   Overcast
12:30 PM 57.2 °F - 48.2 °F 72% 29.74 in 6.2 mi ENE 6.9 mph - N/A   Overcast
1:00 PM 59.0 °F - 48.2 °F 67% 29.74 in 6.2 mi East 5.8 mph - N/A   Partly Cloudy
1:30 PM 60.8 °F - 50.0 °F 68% 29.74 in 6.2 mi Variable 4.6 mph - N/A   Unknown
2:00 PM 62.6 °F - 48.2 °F 59% 29.71 in 6.2 mi East 5.8 mph - N/A   Unknown
2:30 PM 62.6 °F - 50.0 °F 63% 29.71 in 6.2 mi ENE 4.6 mph - N/A   Unknown
3:00 PM 62.6 °F - 50.0 °F 63% 29.71 in 6.2 mi ENE 4.6 mph - N/A   Mostly Cloudy
3:30 PM 62.6 °F - 50.0 °F 63% 29.71 in 6.2 mi East 3.5 mph - N/A   Overcast
4:00 PM 62.6 °F - 50.0 °F 63% 29.74 in 6.2 mi East 4.6 mph - N/A   Overcast
4:30 PM 62.6 °F - 50.0 °F 63% 29.74 in 6.2 mi East 5.8 mph - N/A   Overcast
5:00 PM 60.8 °F - 50.0 °F 68% 29.74 in 6.2 mi East 8.1 mph - N/A   Overcast
5:30 PM 60.8 °F - 50.0 °F 68% 29.74 in 6.2 mi East 10.4 mph - N/A   Overcast
6:00 PM 60.8 °F - 50.0 °F 68% 29.74 in 6.2 mi East 8.1 mph - N/A   Overcast
6:30 PM 59.0 °F - 50.0 °F 72% 29.74 in 6.2 mi East 8.1 mph - N/A   Overcast
7:00 PM 59.0 °F - 50.0 °F 72% 29.77 in 6.2 mi East 8.1 mph - N/A   Overcast
7:30 PM 57.2 °F - 48.2 °F 72% 29.77 in 6.2 mi East 9.2 mph - N/A   Overcast
8:00 PM 55.4 °F - 48.2 °F 77% 29.77 in 6.2 mi East 10.4 mph - N/A   Overcast
8:30 PM 55.4 °F - 46.4 °F 72% 29.80 in 6.2 mi East 9.2 mph - N/A   Overcast
9:00 PM 53.6 °F - 46.4 °F 77% 29.80 in 6.2 mi East 8.1 mph - N/A   Overcast
9:30 PM 53.6 °F - 46.4 °F 77% 29.80 in 6.2 mi ENE 5.8 mph - N/A   Overcast
10:00 PM 51.8 °F - 44.6 °F 76% 29.80 in 6.2 mi ENE 5.8 mph - N/A   Mostly Cloudy
10:30 PM 50.0 °F - 44.6 °F 82% 29.80 in 6.2 mi ENE 4.6 mph - N/A   Unknown
11:00 PM 48.2 °F - 44.6 °F 87% 29.80 in 6.2 mi Calm Calm - N/A   Unknown
11:30 PM 48.2 °F - 44.6 °F 87% 29.80 in 6.2 mi NNE 2.3 mph - N/A   Unknown